Location: Juzet
(42.9779°N, 0.7597°E)
Time: 05:05:49
(UTC+00:00)

Daily predictions for brighter satellites

Satellite Brightness Start Highest point End
(mag) Time Altitude Azimuth Time Altitude Azimuth Time Altitude Azimuth
Cosmos 1697 Rocket 3.9 00:00:09 10° NNW 00:03:24 36° NNW 00:03:24 36° NNW
ATLAS 2AS CENTAUR R/B 3.1 00:09:45 58° NW 00:09:45 58° NW 00:16:13 10° NNE
Cosmos 1980 Rocket 3.2 00:20:25 10° NNW 00:24:20 43° N 00:24:20 43° N
Cosmos 2333 Rocket 4.2 00:49:15 10° N 00:53:48 24° NE 00:57:05 15° E
USA 281 4.4 00:51:27 24° ESE 00:54:33 37° NE 01:00:28 10° N
Cosmos 2082 Rocket 2.9 00:59:24 52° NNE 00:59:24 52° NNE 01:03:42 10° NNE
Cosmos 2322 Rocket 4.5 01:03:49 10° N 01:07:58 21° NE 01:12:07 10° E
ACS3 Solar Sail 1.9 01:13:08 10° N 01:18:32 73° N 01:18:32 73° N
CZ-4C R/B 3.1 01:22:06 37° N 01:22:06 37° N 01:25:41 10° NNE
SL-16 R/B 3.2 01:18:06 10° NNW 01:23:29 43° ENE 01:24:53 36° E
NOSS 3-3 (C) 4.3 01:30:27 49° E 01:30:27 49° E 01:35:14 10° NE
ATLAS 3B R/B 3.5 01:23:56 10° NW 01:29:24 42° WNW 01:29:24 42° WNW
USA 267 3.7 01:27:54 10° ENE 01:34:01 46° SE 01:34:01 46° SE
Cosmos 2026 Rocket 4.4 01:29:54 10° NNW 01:35:02 51° WNW 01:35:02 51° WNW
Cosmos 909 Rocket 4.4 01:37:59 53° WNW 01:38:12 54° NW 01:44:25 10° NNE
Meteor 2-6 Rocket 4.2 01:49:06 78° E 01:49:06 78° E 01:54:56 10° NNE
Cosmos 1092 Rocket 4.4 01:43:46 10° NNW 01:48:43 46° WNW 01:48:43 46° WNW
IDEFIX/ARIANE 42P 2.7 01:52:42 10° N 01:57:22 69° NNW 01:57:22 69° NNW
Envisat 4.2 01:55:50 10° NNE 02:00:25 34° E 02:01:23 31° ESE
Iridium 4 Rocket 4.4 02:03:00 35° ESE 02:03:49 38° E 02:08:23 10° NNE
MOZ.5/SAFIR/RUBIN 5/SL-8 4.3 02:05:32 51° E 02:06:03 54° ENE 02:10:36 10° N
H-2A R/B 4.4 02:06:25 19° E 02:07:27 22° ENE 02:10:16 10° NNE
Cosmos 44 Rocket 4.4 02:08:21 36° NW 02:08:21 36° NW 02:13:06 10° NNE
Cosmos 1980 Rocket 4.5 02:05:46 10° WNW 02:06:03 11° WNW 02:06:03 11° WNW
USA 234 4.4 02:04:01 10° E 02:10:04 42° NNE 02:16:07 10° NW
Cosmos 1975 4.2 02:08:26 10° N 02:10:36 32° NNE 02:10:36 32° NNE
Cosmos 1763 Rocket 3.5 02:13:17 69° SE 02:13:34 71° ESE 02:18:50 10° NNE
ADEOS II 3.8 02:09:31 10° NE 02:13:56 27° E 02:16:28 19° SE
COSMOS 2406 3.6 02:14:30 48° WNW 02:14:47 48° WNW 02:20:22 10° NNE
ALOS 3.4 02:14:19 10° NNE 02:18:30 35° E 02:19:31 31° SE
MSX 4.0 02:13:50 10° N 02:19:25 53° WNW 02:19:47 52° W
CZ-2D R/B 3.0 02:17:37 10° NNE 02:22:39 44° E 02:24:32 32° SSE
ADEOS Rocket 3.5 02:18:18 10° NNE 02:25:57 81° WNW 02:28:49 44° SSW
Cosmos 1375 Rocket 4.5 02:31:37 53° SW 02:33:16 81° NW 02:39:51 10° NNE
Cosmos 1354 Rocket 4.1 02:29:35 10° NNW 02:34:53 75° ENE 02:38:18 22° SSE
Cosmos 1503 Rocket 3.8 02:30:59 10° NNW 02:36:14 74° WSW 02:37:01 62° SSW
Cosmos 2360 Rocket 2.2 02:31:32 10° NNW 02:37:14 82° ENE 02:42:55 10° SSE
FENGYUN 3A 4.0 02:32:28 10° N 02:37:40 48° WNW 02:38:14 46° W
Cosmos 2333 Rocket 2.2 02:32:54 10° NNW 02:38:29 58° WSW 02:38:59 56° SW
USA 281 3.4 02:38:17 45° WSW 02:38:53 46° WSW 02:45:11 10° NW
Cosmos 540 Rocket 3.3 02:41:19 62° SW 02:42:04 74° WNW 02:47:14 10° NNE
Cosmos 2082 Rocket 4.1 02:41:13 15° WNW 02:42:48 17° NW 02:46:30 10° N
Cosmos 2221 3.3 02:43:58 37° NW 02:43:58 37° NW 02:47:09 10° N
Cosmos 468 Rocket 4.1 02:46:38 42° S 02:48:22 72° ESE 02:53:39 10° NNE
NPP 4.4 02:45:50 10° N 02:50:41 35° WNW 02:51:27 34° W
Resurs 1-4 Rocket 2.0 02:46:03 10° NNE 02:51:23 88° E 02:53:19 41° SSW
Meteor 2-9 Rocket 4.3 02:46:35 10° NNW 02:51:40 48° W 02:52:07 46° WSW
BREEZE-M DEB (TANK) 4.3 02:50:12 21° NW 02:51:48 36° NNE 02:58:03 10° E
Cosmos 2278 3.8 02:46:34 10° NW 02:52:04 50° WSW 02:52:57 45° SW
Cosmos 2322 Rocket 2.1 02:46:56 10° NNW 02:52:33 70° WSW 02:56:37 19° S
Cosmos 1833 4.1 02:53:58 43° SSW 02:55:55 82° WNW 03:01:38 10° NNE
Cosmos 1766 Rocket 3.8 02:54:22 10° N 02:58:41 65° E 03:01:40 19° SSE
Cosmos 1271 Rocket 4.2 03:01:02 22° NW 03:01:02 22° NW 03:02:55 10° NNW
ACS3 Solar Sail 3.5 02:57:27 10° NNW 03:00:44 15° WNW 03:02:06 14° WNW
H-2A R/B 2.1 03:00:21 10° NNE 03:05:32 81° ESE 03:08:28 27° S
Cosmos 2219 Rocket 2.2 03:00:49 10° NNW 03:06:30 86° ENE 03:12:10 10° SSE
SL-4 R/B 1.7 03:05:08 28° WNW 03:07:03 89° NNE 03:10:50 10° SE
SL-16 R/B 3.1 03:02:32 10° NW 03:06:38 28° W 03:06:38 28° W
CZ-3 Stage 3 3.7 03:05:05 29° SSW 03:08:33 42° SSE 03:28:46 10° ESE
Meteor 1-11 Rocket 3.9 03:03:05 10° NNW 03:08:48 55° W 03:11:37 29° SSW
USA 290 3.2 03:10:18 34° NW 03:10:18 34° NW 03:12:48 10° N
CZ-4C R/B 4.2 03:07:44 10° NW 03:10:20 14° NNW 03:13:15 10° N
ARGOS 4.0 03:11:18 10° NNE 03:16:30 47° E 03:21:37 10° S
USA 267 3.6 03:10:50 10° NE 03:17:15 59° NNW 03:21:22 23° WSW
METEOR-M 4.2 03:13:49 10° NNE 03:19:09 75° ESE 03:23:22 16° S
Gbstr 26 Del rocket 2.4 03:19:26 14° WNW 03:22:33 85° SW 03:26:21 10° SE
ISS -3.8 03:29:12 44° SW 03:30:10 83° SE 03:33:34 10° ENE
Cosmos 372 Rocket 3.8 03:25:48 10° NNW 03:30:59 81° WSW 03:36:04 10° SSE
JB-3 4.0 03:30:38 21° S 03:32:50 61° W 03:36:25 10° NNW
BREEZE-M DEB (TANK) 2.6 03:31:25 22° WSW 03:36:01 90° SE 03:39:10 10° ENE
Cosmos 1655 Rocket 4.2 03:31:49 10° NNW 03:37:45 48° W 03:43:32 10° SSW
Meteor 2-4 Rocket 3.7 03:34:20 22° SSW 03:37:45 56° WNW 03:43:01 10° N
Cosmos 1461 2.6 03:37:00 31° SW 03:38:37 64° NW 03:42:20 10° NNE
Envisat 4.0 03:34:52 10° N 03:39:15 30° WNW 03:41:31 21° WSW
H-2A R/B 3.2 03:41:22 24° W 03:41:22 24° W 03:44:18 10° NW
Cosmos 2084 Rocket 3.8 03:38:10 10° NW 03:42:08 40° WSW 03:46:06 10° S
Cosmos 1244 Rocket 4.4 03:36:13 10° N 03:42:28 76° W 03:48:36 10° S
Aureole 1 Rocket 3.6 03:38:15 10° NW 03:42:29 46° WSW 03:47:43 10° S
Cosmos 1066 Rocket 4.0 03:38:36 14° SSW 03:43:12 72° W 03:48:34 10° N
NOSS 3-4 (A) 3.9 03:37:23 10° NW 03:44:19 71° WSW 03:52:26 10° SSE
NOSS 3-4 (C) 3.9 03:37:56 10° NW 03:44:53 72° WSW 03:53:00 10° SSE
AQUA 3.8 03:41:59 10° NNE 03:46:42 86° ESE 03:51:22 10° SSW
Cosmos 1151 Rocket 3.8 03:42:52 10° S 03:46:56 51° E 03:51:02 10° NNE
Cosmos 1842 Rocket 3.7 03:46:03 19° SSW 03:48:56 52° W 03:53:10 10° N
Cosmos 1238 Rocket 3.9 03:50:21 16° WNW 03:50:21 16° WNW 03:52:10 10° NNW
Nadezhda 2 Rocket 4.4 03:46:29 10° NNW 03:52:34 73° W 03:58:38 10° S
USA 234 3.2 03:46:15 10° SE 03:52:47 76° SW 03:59:21 10° NW
BREEZE-M DEB (TANK) 3.6 03:44:38 10° WNW 03:52:56 47° SW 03:55:56 10° SSE
ADEOS II 2.7 03:48:42 10° N 03:53:33 40° WNW 03:57:17 16° SW
BREEZE-M DEB (TANK) 3.4 03:50:11 10° WNW 03:53:53 77° SSW 04:06:20 10° SE
ALOS 3.5 03:51:35 10° NNW 03:55:15 24° WNW 03:57:32 17° WSW
Cosmos 2297 Rocket 3.3 03:50:08 10° S 03:55:26 44° ESE 04:00:46 10° NE
CZ-2D R/B 3.3 03:58:06 10° N 04:02:22 26° WNW 04:05:48 14° WSW
Cosmos 841 Rocket 3.7 03:58:30 14° SW 04:02:43 52° WNW 04:07:47 10° N
SL-16 R/B 2.5 03:57:05 10° SSE 04:03:20 78° WSW 04:09:38 10° NNW
Sich 1 2.9 03:59:54 10° NNW 04:04:00 61° W 04:08:03 10° S
Okean 3 Rocket 3.6 04:00:38 10° NNW 04:05:02 64° W 04:09:27 10° S
Cosmos 1758 3.0 04:02:01 10° N 04:05:41 88° E 04:09:17 10° S
COSMOS 2428 2.8 04:00:05 10° NNW 04:05:50 85° ENE 04:11:31 10° SSE
CZ-3 R/B 3.8 03:42:38 10° WSW 04:08:19 42° SSW 04:16:25 10° SE
Cosmos 1898 Rocket 3.7 04:07:22 10° NNW 04:12:17 46° WSW 04:17:11 10° S
Cosmos 1743 Rocket 4.4 04:08:58 10° N 04:13:17 54° E 04:17:32 10° SSE
Cosmos 1805 Rocket 3.5 04:09:27 10° N 04:13:52 88° W 04:18:13 10° S
Cosmos 1937 Rocket 3.5 04:11:42 10° NNW 04:16:48 58° WSW 04:21:48 10° S
DELTA 2 R/B (1) 4.1 04:13:49 12° SW 04:18:47 47° SSE 04:24:04 10° E
Cosmos 2360 Rocket 3.8 04:17:35 10° WNW 04:20:24 14° W 04:23:13 10° SW
USA 276 0.4 04:19:17 10° WNW 04:20:54 72° SSW 04:22:45 10° SE
H-2A R/B 2.2 04:18:53 10° N 04:22:44 46° WNW 04:26:31 10° SW
Meteor 2-10 Rocket 4.1 04:22:17 10° NNW 04:26:54 35° W 04:31:40 10° SSW
In-Cosmos 22 4.3 04:23:44 10° SSW 04:28:50 50° WNW 04:34:03 10° N
Resurs 1-4 Rocket 4.0 04:27:45 10° NNW 04:30:23 14° WNW 04:32:59 10° W
Cosmos 1340 Rocket 3.0 04:29:40 10° N 04:33:25 70° E 04:37:10 10° SSE
CZ-2C R/B 2.4 04:32:10 10° N 04:37:00 71° WNW 04:41:40 10° SSW
